Location: Greenwich
(51.4790°N, 0.0090°E)
Time: 00:49:37
(UTC+01:00)

Altair - Pass Details

Date: 19 April 2024
Orbit: 1502 x 1682 km, 47.2° (Epoch: 23 May)

Event Time Altitude Azimuth Distance (km) Brightness Sun altitude
Rises 18:51:10 0° 200° (SSW) 4,917 10.3 10.2°
Reaches altitude 10° 18:54:56 10° 190° (S) 3,921 9.7 9.6°
Maximum altitude 19:02:55 28° 137° (SE) 2,728 8.5 8.4°
Drops below altitude 10° 19:10:43 10° 83° (E) 3,841 9.0 7.2°
Sets 19:14:21 0° 73° (ENE) 4,802 9.5 6.6°
